Volver al catálogo

STARLINK-33563

ActivoComunicacionesVLEO
NORAD 62284·PAYLOAD·🇺🇸 United States

Lanzado Dec 8, 2024 desde Cape Canaveral Space Force Station

Loading…

Próximos Pases (próximas 24 horas)

TLE

ActualizadoSource: CelesTrak SupGP

Época: Sep 15, 2026, 03:05 UTC

1 62284C 24237T   26258.12895833 -.00061058  00000+0 -22117-2 0  2586
2 62284  42.9992 226.5881 0001225 271.3350  74.3239 15.27606135    17

Sigue STARLINK-33563 en tiempo real con AllMySat

Download on the App Store